Location: Newport
(44.6370°N, 124.0520°W)
Time: 09:20:22
(UTC-07:00)

Vanguard 1 - Visible Passes

Search period start: 20 October 2017 00:00
Search period end: 30 October 2017 00:00
Orbit: 650 x 3834 km, 34.3° (Epoch: 20 October)

Date Brightness Start Highest point End Pass type
(mag) Time Alt. Az. Time Alt. Az. Time Alt. Az.
20 Oct 13.7 00:43:05 18° E 00:43:05 18° E 00:47:55 10° E visible
20 Oct 12.6 02:55:48 57° SSE 02:55:48 57° SSE 03:15:54 10° E visible
20 Oct 12.8 05:08:30 36° WSW 05:18:48 60° SSW 05:41:22 10° ESE visible
21 Oct 13.6 01:02:54 23° E 01:02:54 23° E 01:09:50 10° E visible
21 Oct 12.5 03:15:38 60° SSE 03:15:38 60° SSE 03:37:23 10° E visible
21 Oct 12.9 05:28:20 31° WSW 05:40:04 56° SSW 06:02:15 10° SE visible
22 Oct 13.4 01:22:45 28° ESE 01:22:45 28° ESE 01:31:35 10° E visible
22 Oct 12.5 03:35:28 61° S 03:36:03 61° S 03:58:47 10° ESE visible
22 Oct 13.0 05:48:11 25° W 06:01:16 51° SSW 06:22:54 10° SE visible
23 Oct 13.2 01:42:38 33° ESE 01:42:38 33° ESE 01:53:16 10° E visible
23 Oct 12.4 03:55:21 59° SSW 03:57:20 60° S 04:20:05 10° ESE visible
23 Oct 13.1 06:08:04 20° W 06:22:22 45° SSW 06:43:16 10° SE visible
24 Oct 13.1 02:02:33 38° ESE 02:02:33 38° ESE 02:14:52 10° E visible
24 Oct 12.5 04:15:16 54° SW 04:18:37 58° S 04:41:12 10° ESE visible
24 Oct 13.3 06:28:00 16° W 06:43:21 39° SSW 07:03:17 10° SSE visible
25 Oct 12.9 02:22:30 43° ESE 02:22:30 43° ESE 02:36:24 10° ESE visible
25 Oct 12.5 04:35:13 48° SW 04:39:53 54° SSW 05:02:08 10° SE visible
25 Oct 13.4 06:47:57 11° W 07:04:14 33° SW 07:22:53 10° SSE visible
26 Oct 13.9 00:29:46 11° E 00:29:46 11° E 00:30:24 10° E visible
26 Oct 12.8 02:42:30 47° SE 02:42:30 47° SE 02:57:51 10° ESE visible
26 Oct 12.6 04:55:14 41° WSW 05:01:05 49° SSW 05:22:48 10° SE visible
26 Oct 13.5 07:09:28 10° W 07:25:01 27° SW 07:41:51 10° S visible
27 Oct 13.8 00:49:48 14° E 00:49:48 14° E 00:52:03 10° E visible
27 Oct 12.7 03:02:32 50° SE 03:02:32 50° SE 03:19:11 10° ESE visible
27 Oct 12.8 05:15:16 35° WSW 05:22:13 43° SSW 05:43:10 10° SE visible
28 Oct 13.7 01:09:52 18° E 01:09:52 18° E 01:13:39 10° E visible
28 Oct 12.7 03:22:36 50° SSE 03:22:36 50° SSE 03:40:20 10° ESE visible
28 Oct 12.9 05:35:20 29° WSW 05:43:16 37° SSW 06:03:10 10° SSE visible
29 Oct 13.6 01:29:58 21° ESE 01:29:58 21° ESE 01:35:11 10° ESE visible
29 Oct 12.7 03:42:42 49° S 03:42:42 49° S 04:01:17 10° SE visible
29 Oct 13.1 05:55:27 23° WSW 06:04:16 31° SW 06:22:40 10° SSE visible
